Location: Mexico
(19.4000°N, 99.1500°W)
Time: 12:37:05
(UTC-06:00)

ISS - Pass Details

Date: 13 January 2021
Orbit: 418 x 421 km, 51.6° (Epoch: 24 January)

Event Time Altitude Azimuth Distance (km) Brightness Sun altitude
Exits shadow 06:42:06 - 276° (W) 1,544 -1.5 -7.7°
Reaches altitude 10° 06:42:18 10° 273° (W) 1,491 -1.6 -7.6°
Maximum altitude 06:44:19 15° 236° (SW) 1,215 -1.7 -7.2°
Drops below altitude 10° 06:46:21 10° 198° (SSW) 1,487 -0.9 -6.7°
Sets 06:49:04 0° 174° (S) 2,346 0.4 -6.1°
